| time (UTC) | temp F | wind direction | speed MPH | gust MPH | rain 1hr in | rain 24hr in | rain mn in | humidity % | barometer mb |
| 20260903122532 | 77 | 57 | 4.0 | 8.0 | 0.00 | 0.01 | 0.01 | 43 | 1017.2 |
| 20260903121145 | 77 | 51 | 5.0 | 9.0 | 0.00 | 0.01 | 0.01 | 45 | 1017.5 |
| 20260903120531 | 77 | 8 | 3.0 | 6.0 | 0.00 | 0.01 | 0.01 | 44 | 1017.4 |
| 20260903115532 | 76 | 50 | 4.0 | 10.0 | 0.00 | 0.01 | 0.01 | 43 | 1017.6 |
| 20260903114141 | 78 | 75 | 2.0 | 6.0 | 0.00 | 0.01 | 0.01 | 43 | 1017.5 |
| 20260903113532 | 77 | 62 | 4.0 | 8.0 | 0.00 | 0.01 | 0.01 | 42 | 1017.6 |
| 20260903112531 | 77 | 86 | 3.0 | 9.0 | 0.00 | 0.01 | 0.01 | 40 | 1017.6 |
| 20260903111145 | 76 | 95 | 3.0 | 10.0 | 0.00 | 0.01 | 0.01 | 44 | 1017.8 |
| 20260903110532 | 75 | 70 | 2.0 | 5.0 | 0.00 | 0.01 | 0.01 | 45 | 1018.0 |
| 20260903105532 | 74 | 88 | 4.0 | 8.0 | 0.00 | 0.01 | 0.01 | 48 | 1018.6 |
| 20260903104145 | 74 | 79 | 4.0 | 7.0 | 0.00 | 0.01 | 0.01 | 52 | 1019.0 |
| 20260903103532 | 73 | 66 | 5.0 | 9.0 | 0.00 | 0.01 | 0.01 | 52 | 1019.1 |
| 20260903102532 | 73 | 77 | 4.0 | 7.0 | 0.00 | 0.01 | 0.01 | 57 | 1019.1 |
| 20260903101145 | 71 | 60 | 4.0 | 8.0 | 0.00 | 0.01 | 0.01 | 60 | 1019.4 |
| 20260903100532 | 71 | 65 | 3.0 | 7.0 | 0.00 | 0.01 | 0.01 | 61 | 1019.6 |
| 20260903095532 | 70 | 70 | 4.0 | 6.0 | 0.00 | 0.01 | 0.01 | 61 | 1019.9 |
| 20260903094144 | 69 | 81 | 4.0 | 7.0 | 0.00 | 0.01 | 0.01 | 63 | 1020.1 |
| 20260903093532 | 68 | 80 | 4.0 | 6.0 | 0.00 | 0.01 | 0.01 | 65 | 1020.4 |
| 20260903091145 | 67 | 32 | 2.0 | 6.0 | 0.00 | 0.01 | 0.01 | 67 | 1020.9 |
| 20260903090532 | 67 | 335 | 2.0 | 4.0 | 0.00 | 0.01 | 0.01 | 66 | 1021.0 |
| 20260903085532 | 66 | 318 | 2.0 | 4.0 | 0.00 | 0.01 | 0.01 | 69 | 1021.2 |
| 20260903084144 | 65 | 75 | 1.0 | 3.0 | 0.00 | 0.01 | 0.01 | 70 | 1021.5 |
| 20260903083532 | 65 | 139 | 2.0 | 4.0 | 0.00 | 0.01 | 0.01 | 71 | 1021.5 |
| 20260903082532 | 65 | 48 | 1.0 | 3.0 | 0.00 | 0.01 | 0.01 | 70 | 1021.6 |
| 20260903081145 | 64 | 71 | 3.0 | 5.0 | 0.00 | 0.01 | 0.01 | 73 | 1021.5 |
| 20260903080532 | 64 | 68 | 3.0 | 5.0 | 0.00 | 0.01 | 0.01 | 78 | 1021.7 |
| 20260903075532 | 61 | 43 | 1.0 | 4.0 | 0.00 | 0.01 | 0.01 | 78 | 1022.0 |
| 20260903074145 | 62 | 79 | 2.0 | 4.0 | 0.00 | 0.01 | 0.01 | 79 | 1022.1 |
| 20260903073531 | 61 | 95 | 2.0 | 4.0 | 0.00 | 0.01 | 0.01 | 79 | 1022.3 |
| 20260903072531 | 60 | 152 | 2.0 | 5.0 | 0.00 | 0.01 | 0.01 | 82 | 1022.4 |
| 20260903071145 | 60 | 138 | 3.0 | 5.0 | 0.00 | 0.01 | 0.01 | 82 | 1022.6 |
| 20260903070532 | 60 | 105 | 2.0 | 5.0 | 0.00 | 0.01 | 0.01 | 84 | 1022.6 |
| 20260903065532 | 59 | 173 | 2.0 | 4.0 | 0.00 | 0.01 | 0.01 | 85 | 1022.8 |
| 20260903064144 | 58 | 115 | 2.0 | 3.0 | 0.00 | 0.01 | 0.01 | 86 | 1023.0 |
| 20260903063531 | 58 | 164 | 1.0 | 3.0 | 0.00 | 0.01 | 0.01 | 88 | 1022.9 |
| 20260903062532 | 57 | 209 | 1.0 | 2.0 | 0.00 | 0.01 | 0.01 | 92 | 1023.1 |
| 20260903061145 | 56 | 166 | 0.0 | 1.0 | 0.00 | 0.01 | 0.01 | 94 | 1023.3 |
| 20260903060532 | 56 | 307 | 1.0 | 2.0 | 0.00 | 0.01 | 0.01 | 95 | 1023.3 |
| 20260903055531 | 55 | 301 | 0.0 | 2.0 | 0.00 | 0.01 | 0.01 | 95 | 1023.3 |
| 20260903054144 | 55 | 68 | 0.0 | 2.0 | 0.00 | 0.01 | 0.01 | 96 | 1023.3 |
| 20260903053532 | 55 | 250 | 0.0 | 2.0 | 0.00 | 0.01 | 0.01 | 96 | 1023.3 |
| 20260903052532 | 55 | 190 | 1.0 | 2.0 | 0.00 | 0.01 | 0.01 | 96 | 1023.2 |
| 20260903051145 | 54 | 238 | 1.0 | 2.0 | 0.00 | 0.01 | 0.01 | 95 | 1023.2 |
| 20260903050531 | 53 | 265 | 2.0 | 3.0 | 0.00 | 0.01 | 0.01 | 95 | 1023.3 |
| 20260903045532 | 54 | 306 | 2.0 | 3.0 | 0.00 | 0.01 | 0.01 | 95 | 1023.2 |
| 20260903044144 | 54 | 323 | 1.0 | 3.0 | 0.00 | 0.01 | 0.01 | 95 | 1023.1 |
| 20260903043531 | 55 | 99 | 1.0 | 2.0 | 0.00 | 0.01 | 0.01 | 96 | 1023.0 |
| 20260903042532 | 55 | 79 | 2.0 | 4.0 | 0.00 | 0.01 | 0.01 | 95 | 1022.9 |
| 20260903041144 | 54 | 49 | 3.0 | 5.0 | 0.00 | 0.01 | 0.01 | 96 | 1022.9 |
| 20260903040532 | 54 | 32 | 4.0 | 5.0 | 0.00 | 0.01 | 0.01 | 95 | 1023.0 |
| 20260903035532 | 54 | 28 | 2.0 | 4.0 | 0.00 | 0.01 | 0.01 | 95 | 1022.9 |
| 20260903034531 | 54 | 59 | 2.0 | 3.0 | 0.00 | 0.01 | 0.01 | 94 | 1023.0 |
| 20260903033531 | 54 | 35 | 2.0 | 4.0 | 0.00 | 0.01 | 0.01 | 94 | 1023.0 |
| 20260903032532 | 55 | 85 | 0.0 | 1.0 | 0.00 | 0.01 | 0.01 | 96 | 1022.8 |
| 20260903031145 | 54 | 238 | 1.0 | 2.0 | 0.00 | 0.01 | 0.01 | 96 | 1023.0 |
| 20260903030532 | 53 | 252 | 2.0 | 2.0 | 0.00 | 0.01 | 0.01 | 96 | 1023.0 |
| 20260903025532 | 53 | 234 | 1.0 | 2.0 | 0.00 | 0.01 | 0.01 | 96 | 1023.0 |
| 20260903024532 | 53 | 243 | 2.0 | 2.0 | 0.00 | 0.01 | 0.01 | 96 | 1023.2 |
| 20260903023532 | 53 | 328 | 2.0 | 2.0 | 0.00 | 0.01 | 0.01 | 96 | 1023.2 |
| 20260903022532 | 53 | 320 | 4.0 | 5.0 | 0.00 | 0.01 | 0.01 | 95 | 1023.2 |
| 20260903021144 | 53 | 316 | 3.0 | 4.0 | 0.00 | 0.01 | 0.01 | 95 | 1023.3 |
| 20260903020532 | 54 | 346 | 3.0 | 4.0 | 0.00 | 0.01 | 0.00 | 95 | 1023.3 |
| 20260903015532 | 55 | 360 | 2.0 | 4.0 | 0.00 | 0.01 | 0.00 | 96 | 1023.1 |
| 20260903014144 | 55 | 31 | 1.0 | 4.0 | 0.00 | 0.01 | 0.00 | 95 | 1023.2 |
| 20260903012531 | 56 | 135 | 2.0 | 3.0 | 0.00 | 0.01 | 0.00 | 95 | 1022.8 |
| 20260903011145 | 56 | 191 | 1.0 | 2.0 | 0.00 | 0.01 | 0.00 | 95 | 1022.8 |
| 20260903010532 | 56 | 277 | 0.0 | 5.0 | 0.00 | 0.01 | 0.00 | 95 | 1022.8 |
| 20260903005532 | 55 | 322 | 5.0 | 6.0 | 0.00 | 0.02 | 0.00 | 95 | 1023.0 |
| 20260903004145 | 56 | 319 | 3.0 | 4.0 | 0.00 | 0.02 | 0.00 | 95 | 1022.9 |
| 20260903003532 | 56 | 332 | 2.0 | 4.0 | 0.00 | 0.02 | 0.00 | 95 | 1022.8 |
| 20260903002532 | 56 | 321 | 3.0 | 5.0 | 0.00 | 0.02 | 0.00 | 94 | 1022.9 |
| 20260903001544 | 57 | 347 | 3.0 | 6.0 | 0.00 | 0.02 | 0.00 | 93 | 1022.8 |
| 20260903000531 | 57 | 82 | 2.0 | 7.0 | 0.00 | 0.02 | 0.00 | 92 | 1022.9 |
| 20260902235531 | 57 | 155 | 4.0 | 6.0 | 0.00 | 0.02 | 0.00 | 92 | 1022.8 |
| 20260902234145 | 57 | 135 | 3.0 | 7.0 | 0.00 | 0.02 | 0.00 | 92 | 1022.8 |
| 20260902233531 | 57 | 128 | 2.0 | 6.0 | 0.00 | 0.02 | 0.00 | 92 | 1022.6 |
| 20260902232531 | 57 | 353 | 4.0 | 5.0 | 0.00 | 0.02 | 0.00 | 93 | 1022.7 |
| 20260902231532 | 56 | 321 | 4.0 | 8.0 | 0.00 | 0.02 | 0.00 | 93 | 1022.8 |
| 20260902230532 | 56 | 246 | 3.0 | 5.0 | 0.00 | 0.02 | 0.00 | 93 | 1022.7 |
| 20260902225532 | 57 | 213 | 1.0 | 3.0 | 0.00 | 0.02 | 0.00 | 91 | 1022.8 |
| 20260902224145 | 56 | 21 | 1.0 | 3.0 | 0.00 | 0.02 | 0.00 | 91 | 1022.8 |
| 20260902223532 | 57 | 60 | 2.0 | 3.0 | 0.00 | 0.02 | 0.00 | 89 | 1022.5 |
| 20260902222532 | 57 | 36 | 2.0 | 4.0 | 0.00 | 0.02 | 0.00 | 90 | 1022.5 |
| 20260902221145 | 57 | 36 | 2.0 | 3.0 | 0.00 | 0.02 | 0.00 | 90 | 1022.5 |
| 20260902220531 | 57 | 47 | 2.0 | 3.0 | 0.00 | 0.02 | 0.02 | 90 | 1022.6 |
| 20260902215532 | 56 | 80 | 1.0 | 3.0 | 0.00 | 0.02 | 0.02 | 90 | 1022.6 |
| 20260902214145 | 57 | 55 | 2.0 | 3.0 | 0.00 | 0.02 | 0.02 | 90 | 1022.4 |
| 20260902213531 | 57 | 47 | 1.0 | 2.0 | 0.00 | 0.02 | 0.02 | 90 | 1022.3 |
| 20260902211145 | 56 | 360 | 2.0 | 3.0 | 0.00 | 0.02 | 0.02 | 92 | 1022.3 |
| 20260902210532 | 56 | 15 | 2.0 | 3.0 | 0.00 | 0.02 | 0.02 | 89 | 1022.3 |
| 20260902205532 | 57 | 79 | 1.0 | 2.0 | 0.00 | 0.02 | 0.02 | 91 | 1022.1 |
| 20260902204146 | 57 | 54 | 1.0 | 3.0 | 0.00 | 0.02 | 0.02 | 90 | 1022.0 |
| 20260902203531 | 58 | 65 | 3.0 | 4.0 | 0.00 | 0.02 | 0.02 | 90 | 1021.8 |
| 20260902202532 | 57 | 48 | 1.0 | 2.0 | 0.00 | 0.02 | 0.02 | 90 | 1022.0 |
| 20260902201145 | 57 | 4 | 2.0 | 4.0 | 0.00 | 0.02 | 0.02 | 89 | 1022.0 |
| 20260902200532 | 59 | 76 | 4.0 | 6.0 | 0.00 | 0.02 | 0.02 | 87 | 1021.7 |
| 20260902195532 | 59 | 100 | 3.0 | 5.0 | 0.00 | 0.02 | 0.02 | 86 | 1021.7 |
| 20260902194145 | 60 | 92 | 3.0 | 5.0 | 0.00 | 0.02 | 0.02 | 86 | 1021.5 |
| 20260902193532 | 60 | 80 | 3.0 | 5.0 | 0.00 | 0.02 | 0.02 | 86 | 1021.5 |
| 20260902192531 | 60 | 80 | 4.0 | 6.0 | 0.00 | 0.02 | 0.02 | 86 | 1021.2 |
| 20260902191145 | 61 | 84 | 4.0 | 5.0 | 0.00 | 0.02 | 0.02 | 85 | 1021.2 |
| 20260902190531 | 61 | 81 | 4.0 | 5.0 | 0.00 | 0.02 | 0.02 | 85 | 1021.0 |
| 20260902185532 | 61 | 76 | 4.0 | 6.0 | 0.00 | 0.02 | 0.02 | 84 | 1020.8 |
| 20260902184145 | 61 | 67 | 1.0 | 3.0 | 0.00 | 0.02 | 0.02 | 81 | 1020.9 |
| 20260902183532 | 62 | 7 | 0.0 | 3.0 | 0.00 | 0.02 | 0.02 | 79 | 1020.7 |
| 20260902182532 | 62 | 51 | 2.0 | 4.0 | 0.00 | 0.02 | 0.02 | 78 | 1020.5 |
| 20260902181145 | 62 | 18 | 3.0 | 4.0 | 0.00 | 0.02 | 0.02 | 78 | 1020.0 |
| 20260902180532 | 64 | 45 | 4.0 | 6.0 | 0.00 | 0.02 | 0.02 | 75 | 1019.7 |
| 20260902175532 | 64 | 51 | 5.0 | 7.0 | 0.00 | 0.02 | 0.02 | 77 | 1019.6 |
| 20260902174145 | 65 | 90 | 5.0 | 7.0 | 0.00 | 0.02 | 0.02 | 73 | 1019.2 |
| 20260902173531 | 65 | 100 | 6.0 | 10.0 | 0.00 | 0.02 | 0.02 | 72 | 1019.0 |
| 20260902172532 | 65 | 92 | 9.0 | 11.0 | 0.00 | 0.02 | 0.02 | 70 | 1019.0 |
| 20260902171145 | 66 | 80 | 7.0 | 10.0 | 0.00 | 0.02 | 0.02 | 67 | 1018.9 |
| 20260902170532 | 67 | 93 | 5.0 | 7.0 | 0.00 | 0.02 | 0.02 | 64 | 1018.8 |
| 20260902165532 | 67 | 92 | 6.0 | 10.0 | 0.00 | 0.02 | 0.02 | 64 | 1018.8 |
| 20260902164145 | 69 | 94 | 8.0 | 11.0 | 0.00 | 0.02 | 0.02 | 61 | 1018.7 |
| 20260902163532 | 70 | 81 | 8.0 | 10.0 | 0.00 | 0.02 | 0.02 | 59 | 1018.4 |
| 20260902162532 | 70 | 78 | 9.0 | 11.0 | 0.00 | 0.02 | 0.02 | 60 | 1018.3 |
| 20260902161145 | 69 | 92 | 9.0 | 11.0 | 0.00 | 0.02 | 0.02 | 64 | 1018.4 |
| 20260902160531 | 70 | 90 | 10.0 | 12.0 | 0.00 | 0.02 | 0.02 | 62 | 1018.5 |
| 20260902155532 | 69 | 96 | 6.0 | 10.0 | 0.00 | 0.02 | 0.02 | 62 | 1018.4 |
| 20260902154145 | 69 | 96 | 9.0 | 13.0 | 0.00 | 0.02 | 0.02 | 65 | 1018.5 |
| 20260902153532 | 68 | 65 | 10.0 | 14.0 | 0.00 | 0.02 | 0.02 | 65 | 1018.7 |
| 20260902152532 | 67 | 67 | 13.0 | 17.0 | 0.00 | 0.02 | 0.02 | 67 | 1018.8 |
| 20260902151145 | 68 | 81 | 12.0 | 16.0 | 0.00 | 0.02 | 0.02 | 65 | 1018.7 |
| 20260902150532 | 68 | 83 | 13.0 | 16.0 | 0.00 | 0.02 | 0.02 | 66 | 1018.5 |
| 20260902145532 | 69 | 74 | 13.0 | 17.0 | 0.00 | 0.02 | 0.02 | 62 | 1018.4 |
| 20260902144145 | 71 | 71 | 11.0 | 15.0 | 0.00 | 0.02 | 0.02 | 54 | 1018.1 |
| 20260902143531 | 71 | 49 | 10.0 | 14.0 | 0.00 | 0.02 | 0.02 | 54 | 1017.7 |
| 20260902142532 | 70 | 51 | 13.0 | 16.0 | 0.00 | 0.02 | 0.02 | 56 | 1017.8 |
| 20260902141145 | 69 | 59 | 13.0 | 17.0 | 0.00 | 0.02 | 0.02 | 55 | 1018.3 |
| 20260902140532 | 69 | 69 | 15.0 | 22.0 | 0.00 | 0.02 | 0.02 | 55 | 1018.4 |
| 20260902135532 | 70 | 79 | 18.0 | 26.0 | 0.00 | 0.02 | 0.02 | 52 | 1018.3 |
| 20260902134144 | 72 | 66 | 16.0 | 23.0 | 0.00 | 0.02 | 0.02 | 46 | 1017.6 |
| 20260902133532 | 75 | 66 | 7.0 | 17.0 | 0.00 | 0.02 | 0.02 | 44 | 1017.1 |
| 20260902132532 | 76 | 70 | 6.0 | 15.0 | 0.00 | 0.02 | 0.02 | 44 | 1017.0 |
| 20260902131145 | 77 | 196 | 7.0 | 12.0 | 0.00 | 0.02 | 0.02 | 47 | 1016.7 |
| 20260902130532 | 78 | 205 | 6.0 | 14.0 | 0.00 | 0.02 | 0.02 | 48 | 1016.4 |
| 20260902125532 | 77 | 205 | 8.0 | 13.0 | 0.00 | 0.02 | 0.02 | 46 | 1016.6 |
| 20260902124144 | 77 | 192 | 7.0 | 15.0 | 0.00 | 0.02 | 0.02 | 47 | 1016.7 |
| 20260902123532 | 76 | 199 | 6.0 | 14.0 | 0.00 | 0.02 | 0.02 | 48 | 1017.1 |